Terminal Aerodrome Forecast
Issued by NWS Upton, NY

Home | Current Version | Previous Version | Text Only | Print | Product List | Glossary On
Versions: 1 2 3 4 5 6 7 8 9 10 11 12 13 14 15 16 17 18 19 20 21 22 23 24 25 26 27 28 29 30 31 32 33 34 35 36 37 38
000
FTUS41 KOKX 250835 AAA
TAFEWR
TAF AMD
KEWR 250835Z 2509/2612 10010G18KT 6SM -RA BR SCT008 BKN012
     FM251100 07014G20KT 2SM -RA BR OVC006
     FM251800 06008KT 4SM -RA BR OVC004
     FM252100 05006KT 2SM -SHRA BR OVC004
     FM260300 02006KT 2SM -SHRA BR OVC004=

USA.gov is the U.S. government's official web portal to all federal, state and local government web resources and services.